Time,TemperatureF,DewpointF,PressureIn,WindDirection,WindDirectionDegrees,WindSpeedMPH,WindSpeedGustMPH,Humidity,HourlyPrecipIn,Conditions,Clouds,dailyrainin,SoftwareType,DateUTC
2013-06-13 00:02:00,79.2,71.3,29.91,WSW,247,0.0,-999.0,77,-99.99,,,0.00,Acu-Link.com,2013-06-13 05:02:00,
2013-06-13 00:17:00,78.6,71.5,29.89,WSW,247,0.0,-999.0,79,-99.99,,,0.00,Acu-Link.com,2013-06-13 05:17:00,
2013-06-13 00:32:00,78.1,71.4,29.87,SW,225,0.0,-999.0,80,-99.99,,,0.00,Acu-Link.com,2013-06-13 05:32:00,
2013-06-13 00:48:00,77.7,71.0,29.90,NE,45,0.0,-999.0,80,-99.99,,,0.00,Acu-Link.com,2013-06-13 05:48:00,
2013-06-13 01:03:00,77.5,71.2,29.89,NW,315,0.0,-999.0,81,-99.99,,,0.00,Acu-Link.com,2013-06-13 06:03:00,
2013-06-13 01:18:00,77.5,71.2,29.92,NW,315,0.0,-999.0,81,-99.99,,,0.00,Acu-Link.com,2013-06-13 06:18:00,
2013-06-13 01:33:00,77.5,71.2,29.89,West,270,1.7,-999.0,81,-99.99,,,0.00,Acu-Link.com,2013-06-13 06:33:00,
2013-06-13 01:49:00,77.2,71.6,29.86,NW,315,0.0,-999.0,83,-99.99,,,0.00,Acu-Link.com,2013-06-13 06:49:00,
2013-06-13 02:04:00,76.8,71.2,29.87,WSW,247,0.0,-999.0,83,-99.99,,,0.00,Acu-Link.com,2013-06-13 07:04:00,
2013-06-13 02:19:00,76.6,71.7,29.88,NNE,22,0.0,-999.0,85,-99.99,,,0.00,Acu-Link.com,2013-06-13 07:19:00,
2013-06-13 02:34:00,76.1,71.3,29.90,West,270,0.0,-999.0,85,-99.99,,,0.00,Acu-Link.com,2013-06-13 07:34:00,
2013-06-13 02:49:00,75.7,71.5,29.87,WNW,292,0.0,-999.0,87,-99.99,,,0.00,Acu-Link.com,2013-06-13 07:49:00,
2013-06-13 03:05:00,75.4,71.3,29.85,WSW,247,0.0,-999.0,87,-99.99,,,0.00,Acu-Link.com,2013-06-13 08:05:00,
2013-06-13 03:20:00,75.2,71.1,29.87,WSW,247,0.0,-999.0,87,-99.99,,,0.00,Acu-Link.com,2013-06-13 08:20:00,
2013-06-13 03:35:00,74.8,70.7,29.90,WNW,292,0.0,-999.0,87,-99.99,,,0.00,Acu-Link.com,2013-06-13 08:35:00,
2013-06-13 03:50:00,74.7,70.9,29.88,NE,45,0.0,-999.0,88,-99.99,,,0.00,Acu-Link.com,2013-06-13 08:50:00,
2013-06-13 04:05:00,74.7,70.9,29.90,SW,225,0.0,-999.0,88,-99.99,,,0.00,Acu-Link.com,2013-06-13 09:05:00,
2013-06-13 04:20:00,74.5,71.0,29.86,NE,45,0.0,-999.0,89,-99.99,,,0.00,Acu-Link.com,2013-06-13 09:20:00,
2013-06-13 04:35:00,74.5,71.0,29.89,West,270,0.0,-999.0,89,-99.99,,,0.00,Acu-Link.com,2013-06-13 09:35:00,
2013-06-13 04:50:00,74.3,70.8,29.88,WSW,247,0.0,-999.0,89,-99.99,,,0.00,Acu-Link.com,2013-06-13 09:50:00,
2013-06-13 05:06:00,74.3,71.2,29.90,NNW,337,0.0,-999.0,90,-99.99,,,0.00,Acu-Link.com,2013-06-13 10:06:00,
2013-06-13 05:21:00,74.3,71.2,29.90,SW,225,0.0,-999.0,90,-99.99,,,0.00,Acu-Link.com,2013-06-13 10:21:00,
2013-06-13 05:36:00,74.3,71.2,29.86,NNE,22,0.0,-999.0,90,-99.99,,,0.00,Acu-Link.com,2013-06-13 10:36:00,
2013-06-13 05:51:00,74.3,71.2,29.93,North,0,0.0,-999.0,90,-99.99,,,0.00,Acu-Link.com,2013-06-13 10:51:00,
2013-06-13 06:06:00,74.1,71.0,29.93,West,270,0.0,-999.0,90,-99.99,,,0.00,Acu-Link.com,2013-06-13 11:06:00,
2013-06-13 06:22:00,74.3,71.5,29.87,SW,225,0.0,-999.0,91,-99.99,,,0.00,Acu-Link.com,2013-06-13 11:22:00,
2013-06-13 06:37:00,74.5,71.7,29.93,East,90,0.0,-999.0,91,-99.99,,,0.00,Acu-Link.com,2013-06-13 11:37:00,
2013-06-13 06:52:00,75.9,73.1,29.89,NW,315,2.2,-999.0,91,-99.99,,,0.00,Acu-Link.com,2013-06-13 11:52:00,
2013-06-13 07:07:00,77.5,73.3,29.92,South,180,0.0,-999.0,87,-99.99,,,0.00,Acu-Link.com,2013-06-13 12:07:00,
2013-06-13 07:22:00,79.2,73.9,29.92,North,0,0.0,-999.0,84,-99.99,,,0.00,Acu-Link.com,2013-06-13 12:22:00,
2013-06-13 07:38:00,81.3,74.1,29.95,WSW,247,2.7,-999.0,79,-99.99,,,0.00,Acu-Link.com,2013-06-13 12:38:00,
2013-06-13 07:53:00,82.4,74.4,29.93,WNW,292,3.7,-999.0,77,-99.99,,,0.00,Acu-Link.com,2013-06-13 12:53:00,
2013-06-13 08:08:00,83.5,74.3,29.94,WNW,292,4.7,-999.0,74,-99.99,,,0.00,Acu-Link.com,2013-06-13 13:08:00,
2013-06-13 08:23:00,84.2,74.2,29.94,WNW,292,4.2,-999.0,72,-99.99,,,0.00,Acu-Link.com,2013-06-13 13:23:00,
2013-06-13 08:39:00,84.2,73.8,29.93,WNW,292,2.2,-999.0,71,-99.99,,,0.00,Acu-Link.com,2013-06-13 13:39:00,
2013-06-13 08:54:00,84.6,74.1,29.91,NNE,22,3.2,-999.0,71,-99.99,,,0.00,Acu-Link.com,2013-06-13 13:54:00,
2013-06-13 09:09:00,84.9,73.6,29.94,West,270,5.3,-999.0,69,-99.99,,,0.00,Acu-Link.com,2013-06-13 14:09:00,
2013-06-13 09:24:00,85.1,73.3,29.91,NE,45,2.2,-999.0,68,-99.99,,,0.00,Acu-Link.com,2013-06-13 14:24:00,
2013-06-13 09:39:00,86.9,72.3,29.94,West,270,6.3,-999.0,62,-99.99,,,0.00,Acu-Link.com,2013-06-13 14:39:00,
2013-06-13 09:55:00,87.6,72.5,29.94,West,270,2.7,-999.0,61,-99.99,,,0.00,Acu-Link.com,2013-06-13 14:55:00,
2013-06-13 10:10:00,86.2,71.6,29.91,NE,45,2.2,-999.0,62,-99.99,,,0.00,Acu-Link.com,2013-06-13 15:10:00,
2013-06-13 10:25:00,87.3,72.2,29.90,NNE,22,3.2,-999.0,61,-99.99,,,0.00,Acu-Link.com,2013-06-13 15:25:00,
2013-06-13 10:40:00,88.9,71.7,29.90,SW,225,2.7,-999.0,57,-99.99,,,0.00,Acu-Link.com,2013-06-13 15:40:00,
2013-06-13 10:55:00,90.5,71.5,29.86,West,270,3.7,-999.0,54,-99.99,,,0.00,Acu-Link.com,2013-06-13 15:55:00,
2013-06-13 11:11:00,88.5,70.8,29.89,NE,45,2.2,-999.0,56,-99.99,,,0.00,Acu-Link.com,2013-06-13 16:11:00,
2013-06-13 11:26:00,92.1,71.3,29.88,WNW,292,5.3,-999.0,51,-99.99,,,0.00,Acu-Link.com,2013-06-13 16:26:00,
2013-06-13 11:41:00,92.5,71.7,29.87,SW,225,2.7,-999.0,51,-99.99,,,0.00,Acu-Link.com,2013-06-13 16:41:00,
2013-06-13 11:56:00,93.7,70.4,29.87,NW,315,4.7,-999.0,47,-99.99,,,0.00,Acu-Link.com,2013-06-13 16:56:00,
2013-06-13 12:11:00,93.2,69.3,29.85,WSW,247,4.7,-999.0,46,-99.99,,,0.00,Acu-Link.com,2013-06-13 17:11:00,
2013-06-13 12:27:00,92.5,68.0,29.84,WSW,247,4.7,-999.0,45,-99.99,,,0.00,Acu-Link.com,2013-06-13 17:27:00,
2013-06-13 12:42:00,93.2,69.3,29.89,West,270,2.7,-999.0,46,-99.99,,,0.00,Acu-Link.com,2013-06-13 17:42:00,
2013-06-13 12:57:00,93.0,69.1,29.89,NNW,337,3.2,-999.0,46,-99.99,,,0.00,Acu-Link.com,2013-06-13 17:57:00,
2013-06-13 13:12:00,92.1,68.3,29.90,West,270,3.7,-999.0,46,-99.99,,,0.00,Acu-Link.com,2013-06-13 18:12:00,
2013-06-13 13:28:00,95.7,68.9,29.87,West,270,3.7,-999.0,42,-99.99,,,0.00,Acu-Link.com,2013-06-13 18:28:00,
2013-06-13 13:43:00,95.4,68.6,29.84,NW,315,5.3,-999.0,42,-99.99,,,0.00,Acu-Link.com,2013-06-13 18:43:00,
2013-06-13 13:58:00,95.9,69.1,29.81,WNW,292,3.2,-999.0,42,-99.99,,,0.00,Acu-Link.com,2013-06-13 18:58:00,
2013-06-13 14:13:00,95.7,69.6,29.81,North,0,2.2,-999.0,43,-99.99,,,0.00,Acu-Link.com,2013-06-13 19:13:00,
2013-06-13 14:28:00,96.1,69.9,29.79,NW,315,4.2,-999.0,43,-99.99,,,0.00,Acu-Link.com,2013-06-13 19:28:00,
2013-06-13 14:44:00,94.8,69.4,29.80,West,270,2.7,-999.0,44,-99.99,,,0.00,Acu-Link.com,2013-06-13 19:44:00,
2013-06-13 14:59:00,96.6,70.4,29.78,West,270,4.7,-999.0,43,-99.99,,,0.00,Acu-Link.com,2013-06-13 19:59:00,
2013-06-13 15:14:00,95.4,69.3,29.81,West,270,3.2,-999.0,43,-99.99,,,0.00,Acu-Link.com,2013-06-13 20:14:00,
2013-06-13 15:30:00,97.2,69.5,29.76,NNW,337,2.2,-999.0,41,-99.99,,,0.00,Acu-Link.com,2013-06-13 20:30:00,
2013-06-13 15:45:00,96.1,69.2,29.77,West,270,6.3,-999.0,42,-99.99,,,0.00,Acu-Link.com,2013-06-13 20:45:00,
2013-06-13 16:00:00,97.5,69.8,29.77,NNW,337,4.2,-999.0,41,-99.99,,,0.00,Acu-Link.com,2013-06-13 21:00:00,
2013-06-13 16:15:00,98.6,70.0,29.75,SSW,202,4.7,-999.0,40,-99.99,,,0.00,Acu-Link.com,2013-06-13 21:15:00,
2013-06-13 16:30:00,99.3,69.9,29.74,NW,315,6.8,-999.0,39,-99.99,,,0.00,Acu-Link.com,2013-06-13 21:30:00,
2013-06-13 16:46:00,98.8,70.2,29.74,West,270,2.2,-999.0,40,-99.99,,,0.00,Acu-Link.com,2013-06-13 21:46:00,
2013-06-13 17:01:00,98.6,70.8,29.79,SW,225,3.2,-999.0,41,-99.99,,,0.00,Acu-Link.com,2013-06-13 22:01:00,
2013-06-13 17:16:00,96.4,69.5,29.74,NW,315,6.3,-999.0,42,-99.99,,,0.00,Acu-Link.com,2013-06-13 22:16:00,
2013-06-13 17:32:00,93.6,69.7,29.75,NNW,337,1.7,-999.0,46,-99.99,,,0.00,Acu-Link.com,2013-06-13 22:32:00,
2013-06-13 17:47:00,96.6,69.7,29.77,WNW,292,5.3,-999.0,42,-99.99,,,0.00,Acu-Link.com,2013-06-13 22:47:00,
2013-06-13 18:02:00,94.8,70.1,29.74,NNW,337,0.0,-999.0,45,-99.99,,,0.00,Acu-Link.com,2013-06-13 23:02:00,
2013-06-13 18:17:00,96.6,69.0,29.77,SW,225,3.7,-999.0,41,-99.99,,,0.00,Acu-Link.com,2013-06-13 23:17:00,
2013-06-13 18:32:00,97.3,69.6,29.73,NNW,337,2.2,-999.0,41,-99.99,,,0.00,Acu-Link.com,2013-06-13 23:32:00,
2013-06-13 18:48:00,96.1,68.5,29.71,WNW,292,4.2,-999.0,41,-99.99,,,0.00,Acu-Link.com,2013-06-13 23:48:00,
2013-06-13 19:03:00,95.2,68.4,29.76,NW,315,3.2,-999.0,42,-99.99,,,0.00,Acu-Link.com,2013-06-14 00:03:00,
2013-06-13 19:18:00,94.8,68.8,29.71,WSW,247,1.7,-999.0,43,-99.99,,,0.00,Acu-Link.com,2013-06-14 00:18:00,
2013-06-13 19:33:00,93.2,68.7,29.75,West,270,1.1,-999.0,45,-99.99,,,0.00,Acu-Link.com,2013-06-14 00:33:00,
2013-06-13 19:48:00,90.7,68.9,29.74,West,270,0.0,-999.0,49,-99.99,,,0.00,Acu-Link.com,2013-06-14 00:48:00,
2013-06-13 20:04:00,90.0,68.8,29.71,NNE,22,0.0,-999.0,50,-99.99,,,0.00,Acu-Link.com,2013-06-14 01:04:00,
2013-06-13 20:19:00,88.7,69.3,29.76,ENE,67,0.0,-999.0,53,-99.99,,,0.00,Acu-Link.com,2013-06-14 01:19:00,
2013-06-13 20:34:00,87.4,69.2,29.72,SW,225,0.0,-999.0,55,-99.99,,,0.00,Acu-Link.com,2013-06-14 01:34:00,
2013-06-13 20:49:00,86.5,69.4,29.72,West,270,0.0,-999.0,57,-99.99,,,0.00,Acu-Link.com,2013-06-14 01:49:00,
2013-06-13 21:04:00,85.1,69.6,29.72,West,270,0.0,-999.0,60,-99.99,,,0.00,Acu-Link.com,2013-06-14 02:04:00,
2013-06-13 21:20:00,84.6,69.6,29.72,SW,225,0.0,-999.0,61,-99.99,,,0.00,Acu-Link.com,2013-06-14 02:20:00,
2013-06-13 21:35:00,83.7,69.3,29.79,WSW,247,0.0,-999.0,62,-99.99,,,0.00,Acu-Link.com,2013-06-14 02:35:00,
2013-06-13 21:50:00,82.8,69.8,29.74,West,270,0.0,-999.0,65,-99.99,,,0.00,Acu-Link.com,2013-06-14 02:50:00,
2013-06-13 22:05:00,82.2,69.7,29.73,NE,45,0.0,-999.0,66,-99.99,,,0.00,Acu-Link.com,2013-06-14 03:05:00,
2013-06-13 22:21:00,81.7,70.1,29.75,SSE,157,0.0,-999.0,68,-99.99,,,0.00,Acu-Link.com,2013-06-14 03:21:00,
2013-06-13 22:36:00,81.1,70.4,29.74,NNE,22,0.0,-999.0,70,-99.99,,,0.00,Acu-Link.com,2013-06-14 03:36:00,
2013-06-13 22:51:00,80.6,69.9,29.78,NW,315,0.0,-999.0,70,-99.99,,,0.00,Acu-Link.com,2013-06-14 03:51:00,
2013-06-13 23:06:00,80.1,70.6,29.77,NW,315,0.0,-999.0,73,-99.99,,,0.00,Acu-Link.com,2013-06-14 04:06:00,
2013-06-13 23:22:00,79.5,70.5,29.79,West,270,0.0,-999.0,74,-99.99,,,0.00,Acu-Link.com,2013-06-14 04:22:00,
2013-06-13 23:37:00,79.3,70.3,29.78,West,270,0.0,-999.0,74,-99.99,,,0.00,Acu-Link.com,2013-06-14 04:37:00,
2013-06-13 23:52:00,79.0,70.4,29.79,West,270,0.0,-999.0,75,-99.99,,,0.00,Acu-Link.com,2013-06-14 04:52:00,